M8FSI-13 Weather Reports


time (UTC)temp
C
wind
direction
speed
KPH
gust
KPH
rain 1hr
cm
rain 24hr
cm
rain mn
cm
humidity
%
barometer
mb
20260506050612 10 45 3.2 16.1 0.00 0.00 0.00 77 1013.2
20260506044518 10 45 3.2 8.0 0.00 0.00 0.00 77 1012.9
20260506043534 10 0.0 1.6 0.00 0.00 0.00 77 1013.0
20260506042538 10 0.0 1.6 0.00 0.00 0.00 76 1013.0
20260506041534 10 0.0 3.2 0.00 0.00 0.00 75 1013.0
20260506040533 10 0.0 1.6 0.00 0.00 0.00 75 1012.9
20260506035518 10 0.0 1.6 0.00 0.00 0.00 75 1012.9
20260506034557 10 45 3.2 6.4 0.00 0.00 0.00 74 1012.9
20260506033548 10 45 4.8 9.7 0.00 0.00 0.00 73 1012.8
20260506032520 10 45 4.8 12.9 0.00 0.00 0.00 73 1012.9
20260506031519 10 68 4.8 8.0 0.00 0.00 0.00 72 1012.9
20260506030533 10 68 6.4 17.7 0.00 0.00 0.00 72 1012.9
20260506025518 10 45 4.8 9.7 0.00 0.00 0.00 72 1012.9
20260506024535 10 68 4.8 14.5 0.00 0.00 0.00 71 1012.8
20260506023534 10 45 9.7 16.1 0.00 0.00 0.00 71 1012.8
20260506022518 10 45 8.0 14.5 0.00 0.00 0.00 71 1012.8
20260506021519 11 45 6.4 14.5 0.00 0.00 0.00 71 1012.8
20260506020520 11 45 4.8 11.3 0.00 0.00 0.00 72 1012.9
20260506015519 11 45 3.2 8.0 0.00 0.00 0.00 72 1013.1
20260506014548 11 45 4.8 11.3 0.00 0.00 0.00 74 1013.0
20260506013538 11 45 3.2 6.4 0.00 0.00 0.00 74 1013.1
20260506012518 11 45 3.2 9.7 0.00 0.00 0.00 74 1013.1
20260506011538 11 23 3.2 9.7 0.00 0.00 0.00 74 1013.0
20260506010533 11 68 3.2 6.4 0.00 0.00 0.00 73 1013.0
20260506005519 11 45 3.2 9.7 0.00 0.00 0.00 72 1013.1
20260506004533 11 45 3.2 8.0 0.00 0.00 0.00 72 1013.2
20260506003520 11 45 6.4 11.3 0.00 0.00 0.00 71 1013.2
20260506002533 11 45 4.8 8.0 0.00 0.00 0.00 71 1013.2
20260506001533 11 45 6.4 11.3 0.00 0.00 0.00 70 1013.2
20260506000534 11 23 3.2 6.4 0.00 0.00 0.00 69 1013.3
20260505235519 11 68 3.2 4.8 0.00 0.00 0.00 68 1013.2
20260505234518 11 68 4.8 8.0 0.00 0.00 0.00 67 1013.2
20260505233518 12 68 4.8 9.7 0.00 0.00 0.00 67 1013.2
20260505232521 12 68 6.4 17.7 0.00 0.00 0.00 65 1013.2
20260505231520 12 68 4.8 12.9 0.00 0.00 0.00 64 1013.1
20260505230519 12 68 4.8 12.9 0.00 0.00 0.00 62 1013.1
20260505225533 12 68 4.8 11.3 0.00 0.00 0.00 62 1013.1
20260505224613 12 45 4.8 12.9 0.00 0.00 0.00 63 1013.0
20260505223539 12 68 6.4 16.1 0.00 0.00 0.00 64 1013.0
20260505222559 12 68 4.8 11.3 0.00 0.00 0.00 66 1013.0
20260505221518 12 68 6.4 11.3 0.00 0.00 0.00 66 1012.7
20260505220519 13 68 8.0 16.1 0.00 0.00 0.00 66 1012.6
20260505215522 13 68 4.8 9.7 0.00 0.00 0.00 70 1012.5
20260505214534 13 45 3.2 6.4 0.00 0.00 0.00 73 1012.5
20260505213544 13 68 3.2 4.8 0.00 0.00 0.00 72 1012.6
20260505212621 13 45 1.6 3.2 0.00 0.00 0.00 72 1012.6
20260505211518 13 0.0 3.2 0.00 0.00 0.00 73 1012.5
20260505210541 13 0.0 1.6 0.00 0.00 0.00 73 1012.4
20260505205520 13 0.0 1.6 0.00 0.00 0.00 72 1012.4
20260505204611 13 0.0 1.6 0.00 0.00 0.00 72 1012.4
20260505203535 13 0.0 3.2 0.00 0.00 0.00 71 1012.5
20260505202520 13 0.0 1.6 0.00 0.00 0.00 71 1012.4
20260505201620 13 0.0 1.6 0.00 0.00 0.00 70 1012.4
20260505200540 13 0.0 1.6 0.00 0.00 0.00 70 1012.4
20260505195520 13 338 1.6 3.2 0.00 0.00 0.00 70 1012.4
20260505194538 13 0.0 1.6 0.00 0.00 0.00 71 1012.3
20260505193519 13 0.0 1.6 0.00 0.00 0.00 71 1012.1
20260505192541 14 68 1.6 3.2 0.00 0.00 0.00 69 1012.2
20260505191535 14 68 1.6 4.8 0.00 0.00 0.00 67 1012.1
20260505190540 14 315 1.6 4.8 0.00 0.00 0.00 67 1012.1
20260505185525 14 0.0 3.2 0.00 0.00 0.00 67 1012.0
20260505184520 15 0.0 4.8 0.00 0.00 0.00 66 1012.0
20260505183520 15 0.0 3.2 0.00 0.00 0.00 66 1012.0
20260505182520 15 315 1.6 4.8 0.00 0.00 0.00 65 1011.8
20260505181535 15 0.0 3.2 0.00 0.00 0.00 65 1011.8
20260505180519 15 0.0 3.2 0.00 0.05 0.00 64 1011.8
20260505175535 15 0.0 3.2 0.00 0.05 0.00 63 1011.9
20260505174521 15 23 1.6 3.2 0.00 0.05 0.00 63 1011.9
20260505173559 15 315 1.6 6.4 0.00 0.05 0.00 63 1011.9
20260505172601 15 315 1.6 6.4 0.00 0.05 0.00 62 1011.9
20260505171520 15 0.0 3.2 0.00 0.05 0.00 62 1011.9
20260505170534 15 315 1.6 3.2 0.00 0.05 0.00 61 1011.9
20260505165534 15 293 1.6 6.4 0.00 0.05 0.00 61 1012.1
20260505164519 15 0 1.6 4.8 0.00 0.05 0.00 60 1012.1
20260505163605 16 23 3.2 9.7 0.00 0.05 0.00 59 1011.9
20260505162555 16 0 1.6 4.8 0.00 0.05 0.00 58 1011.9
20260505161520 16 45 3.2 9.7 0.00 0.05 0.00 56 1011.9
20260505160521 16 0 1.6 4.8 0.00 0.05 0.00 57 1012.0
20260505152519 16 315 1.6 9.7 0.00 0.05 0.00 57 1012.0
20260505151519 16 315 1.6 6.4 0.00 0.05 0.00 57 1012.0
20260505150601 16 23 1.6 6.4 0.00 0.05 0.00 57 1012.2
20260505140519 16 23 3.2 9.7 0.00 0.05 0.00 59 1012.3
20260505124520 16 68 4.8 9.7 0.00 0.05 0.00 61 1012.7
20260505123519 15 338 4.8 9.7 0.00 0.05 0.00 63 1012.7
20260505122519 15 315 4.8 11.3 0.00 0.05 0.00 63 1012.8
20260505121524 15 315 3.2 9.7 0.00 0.05 0.00 64 1012.9
20260505120554 15 293 3.2 4.8 0.00 0.05 0.00 64 1012.9
20260505115534 15 338 1.6 4.8 0.00 0.05 0.00 65 1012.8
20260505114614 15 293 3.2 8.0 0.00 0.05 0.00 65 1012.9
20260505113535 15 23 4.8 14.5 0.00 0.05 0.00 64 1013.0
20260505112520 15 45 3.2 12.9 0.00 0.05 0.00 64 1012.9
20260505111519 15 0 3.2 11.3 0.00 0.05 0.00 63 1013.1
20260505110539 15 68 3.2 9.7 0.00 0.05 0.00 63 1013.1
20260505101539 16 338 6.4 14.5 0.00 0.05 0.00 58 1013.0
20260505100539 15 45 6.4 14.5 0.00 0.05 0.00 59 1013.0
20260505095533 15 315 6.4 16.1 0.00 0.05 0.00 61 1012.9
20260505094520 15 315 6.4 19.3 0.00 0.05 0.00 62 1013.1
20260505093519 15 23 6.4 14.5 0.00 0.05 0.00 61 1012.9
20260505092519 15 315 4.8 14.5 0.00 0.05 0.00 64 1013.1
20260505091534 15 270 3.2 8.0 0.00 0.05 0.00 65 1013.2
20260505090519 14 338 3.2 11.3 0.00 0.05 0.00 67 1013.5
20260505085535 14 315 3.2 12.9 0.00 0.05 0.00 68 1013.3
20260505084520 13 45 4.8 14.5 0.00 0.05 0.00 69 1013.5
20260505083519 13 45 4.8 14.5 0.00 0.05 0.00 70 1013.5
20260505082519 13 45 8.0 16.1 0.00 0.05 0.00 71 1013.5
20260505081557 13 45 8.0 17.7 0.00 0.05 0.00 70 1013.4
20260505080524 13 45 6.4 19.3 0.00 0.05 0.00 72 1013.5
20260505075539 13 45 4.8 17.7 0.00 0.05 0.00 74 1013.4
20260505074519 13 68 3.2 20.9 0.00 0.05 0.00 76 1013.5
20260505073533 13 45 6.4 16.1 0.00 0.05 0.00 77 1013.5
20260505072533 12 45 3.2 9.7 0.00 0.05 0.00 80 1013.4
20260505071533 12 45 4.8 16.1 0.00 0.05 0.00 80 1013.5
20260505070519 12 45 3.2 12.9 0.00 0.05 0.00 83 1013.5
20260505065519 12 45 4.8 11.3 0.00 0.05 0.00 84 1013.6
20260505064518 12 315 1.6 4.8 0.00 0.05 0.00 85 1013.8
20260505063524 12 68 3.2 8.0 0.00 0.05 0.00 85 1014.0
20260505062519 12 45 1.6 3.2 0.00 0.05 0.00 86 1013.8
20260505061539 12 45 1.6 4.8 0.00 0.05 0.00 86 1013.7
20260505060519 11 23 3.2 8.0 0.00 0.05 0.00 86 1013.8
20260505055520 11 45 3.2 8.0 0.00 0.05 0.00 86 1013.8
20260505054557 11 45 4.8 9.7 0.00 0.05 0.00 86 1013.8
20260505053539 11 45 3.2 6.4 0.00 0.05 0.00 87 1013.8
20260505052519 11 45 4.8 11.3 0.00 0.05 0.00 87 1013.8
20260505051519 11 45 3.2 11.3 0.00 0.05 0.00 88 1013.7